TimeCST,TemperatureF,Dew PointF,Humidity,Sea Level PressureIn,VisibilityMPH,Wind Direction,Wind SpeedMPH,Gust SpeedMPH,PrecipitationIn,Events,Conditions,WindDirDegrees,DateUTC
12:15 AM,39.2,32.7,78,29.76,10.0,Calm,Calm,-,N/A,,Clear,0,2011-11-15 06:15:00
12:35 AM,40.1,32.7,75,29.76,10.0,Calm,Calm,-,N/A,,Clear,0,2011-11-15 06:35:00
12:55 AM,37.9,32.5,81,29.75,10.0,Calm,Calm,-,N/A,,Clear,0,2011-11-15 06:55:00
1:15 AM,37.4,33.8,87,29.75,10.0,Calm,Calm,-,N/A,,Clear,0,2011-11-15 07:15:00
1:35 AM,38.3,32.0,78,29.75,10.0,Calm,Calm,-,N/A,,Clear,0,2011-11-15 07:35:00
1:55 AM,37.0,32.2,83,29.76,10.0,Calm,Calm,-,N/A,,Clear,0,2011-11-15 07:55:00
2:35 AM,34.7,31.1,87,29.75,10.0,SE,3.5,-,N/A,,Clear,140,2011-11-15 08:35:00
2:55 AM,36.5,32.2,84,29.74,10.0,SE,3.5,-,N/A,,Clear,140,2011-11-15 08:55:00
3:15 AM,39.0,32.0,76,29.74,10.0,SE,4.6,-,N/A,,Clear,140,2011-11-15 09:15:00
3:35 AM,39.4,31.8,74,29.73,10.0,SE,4.6,-,N/A,,Clear,130,2011-11-15 09:35:00
3:55 AM,39.2,31.8,75,29.74,10.0,SE,3.5,-,N/A,,Clear,140,2011-11-15 09:55:00
4:15 AM,39.7,32.0,74,29.74,10.0,SE,4.6,-,N/A,,Clear,140,2011-11-15 10:15:00
4:35 AM,39.4,31.5,73,29.74,10.0,SE,3.5,-,N/A,,Clear,130,2011-11-15 10:35:00
4:55 AM,38.7,31.6,76,29.74,10.0,ESE,4.6,-,N/A,,Clear,120,2011-11-15 10:55:00
5:15 AM,37.6,31.1,77,29.74,10.0,SE,3.5,-,N/A,,Clear,140,2011-11-15 11:15:00
5:35 AM,37.8,30.4,75,29.75,10.0,SSE,3.5,-,N/A,,Clear,160,2011-11-15 11:35:00
5:55 AM,39.0,31.3,74,29.74,10.0,SSE,3.5,-,N/A,,Clear,150,2011-11-15 11:55:00
6:55 AM,39.2,32.0,75,29.74,10.0,SE,3.5,-,N/A,,Clear,130,2011-11-15 12:55:00
7:15 AM,38.5,32.0,78,29.74,10.0,SE,5.8,-,N/A,,Clear,130,2011-11-15 13:15:00
7:35 AM,41.9,32.5,69,29.74,10.0,SE,5.8,-,N/A,,Clear,130,2011-11-15 13:35:00
7:55 AM,44.8,34.2,66,29.75,10.0,SE,5.8,-,N/A,,Clear,140,2011-11-15 13:55:00
8:15 AM,46.4,35.4,66,29.75,10.0,SSE,6.9,-,N/A,,Clear,150,2011-11-15 14:15:00
8:35 AM,48.2,36.7,64,29.75,10.0,SSE,5.8,-,N/A,,Clear,160,2011-11-15 14:35:00
8:55 AM,50.0,39.2,66,29.75,10.0,SSE,6.9,-,N/A,,Clear,150,2011-11-15 14:55:00
9:15 AM,54.5,38.8,56,29.75,10.0,South,11.5,-,N/A,,Clear,180,2011-11-15 15:15:00
9:35 AM,55.0,37.8,52,29.75,10.0,South,15.0,18.4,N/A,,Clear,180,2011-11-15 15:35:00
9:55 AM,56.8,38.1,50,29.75,10.0,South,16.1,20.7,N/A,,Clear,170,2011-11-15 15:55:00
10:15 AM,58.6,37.0,45,29.74,10.0,South,15.0,-,N/A,,Clear,180,2011-11-15 16:15:00
10:35 AM,60.8,36.0,40,29.74,10.0,South,19.6,26.5,N/A,,Clear,190,2011-11-15 16:35:00
10:55 AM,62.1,35.6,37,29.74,10.0,South,18.4,23.0,N/A,,Clear,190,2011-11-15 16:55:00
11:15 AM,64.4,33.8,32,29.74,10.0,South,19.6,23.0,N/A,,Clear,190,2011-11-15 17:15:00
11:35 AM,64.6,33.6,32,29.73,10.0,South,17.3,25.3,N/A,,Clear,190,2011-11-15 17:35:00
11:55 AM,65.3,31.8,29,29.71,10.0,South,16.1,25.3,N/A,,Clear,190,2011-11-15 17:55:00
12:15 PM,65.8,31.5,28,29.71,10.0,SSW,17.3,-,N/A,,Clear,200,2011-11-15 18:15:00
12:35 PM,66.6,29.1,25,29.71,10.0,South,19.6,-,N/A,,Clear,180,2011-11-15 18:35:00
12:55 PM,66.2,26.6,23,29.70,10.0,South,18.4,25.3,N/A,,Clear,190,2011-11-15 18:55:00
1:15 PM,67.5,22.3,18,29.69,10.0,South,18.4,-,N/A,,Clear,180,2011-11-15 19:15:00
1:35 PM,68.0,20.5,16,29.69,10.0,SSW,15.0,18.4,N/A,,Clear,210,2011-11-15 19:35:00
1:55 PM,68.0,18.0,15,29.69,10.0,SW,11.5,-,N/A,,Clear,220,2011-11-15 19:55:00
2:15 PM,68.0,17.4,14,29.69,10.0,SSW,12.7,18.4,N/A,,Clear,210,2011-11-15 20:15:00
2:35 PM,67.6,17.4,15,29.69,10.0,SSW,10.4,17.3,N/A,,Clear,210,2011-11-15 20:35:00
2:55 PM,67.5,18.9,16,29.69,10.0,WSW,15.0,-,N/A,,Clear,250,2011-11-15 20:55:00
3:15 PM,66.2,21.6,18,29.70,10.0,WSW,12.7,-,N/A,,Clear,240,2011-11-15 21:15:00
3:35 PM,65.7,23.2,20,29.71,10.0,WSW,8.1,-,N/A,,Clear,240,2011-11-15 21:35:00
3:55 PM,63.5,27.9,26,29.71,10.0,West,10.4,-,N/A,,Clear,260,2011-11-15 21:55:00
4:15 PM,61.5,28.4,29,29.72,10.0,WNW,6.9,-,N/A,,Clear,290,2011-11-15 22:15:00
4:35 PM,58.1,29.5,34,29.73,10.0,WNW,5.8,-,N/A,,Clear,300,2011-11-15 22:35:00
4:55 PM,55.9,28.8,35,29.74,10.0,WNW,4.6,-,N/A,,Clear,300,2011-11-15 22:55:00
5:15 PM,54.1,28.4,37,29.75,10.0,West,3.5,-,N/A,,Clear,280,2011-11-15 23:15:00
5:35 PM,53.1,28.2,38,29.76,10.0,WNW,3.5,-,N/A,,Clear,290,2011-11-15 23:35:00
5:55 PM,51.3,28.4,41,29.77,10.0,WNW,4.6,-,N/A,,Clear,300,2011-11-15 23:55:00
6:15 PM,49.1,29.1,46,29.78,10.0,NW,6.9,-,N/A,,Clear,310,2011-11-16 00:15:00
6:35 PM,49.1,30.9,50,29.79,10.0,NW,6.9,-,N/A,,Clear,310,2011-11-16 00:35:00
6:55 PM,49.1,31.5,51,29.80,10.0,NW,6.9,-,N/A,,Clear,310,2011-11-16 00:55:00
7:15 PM,48.2,32.0,54,29.81,10.0,NW,8.1,-,N/A,,Clear,320,2011-11-16 01:15:00
7:35 PM,48.2,31.6,53,29.82,10.0,NW,6.9,-,N/A,,Clear,310,2011-11-16 01:35:00
7:55 PM,47.8,30.2,50,29.83,10.0,WNW,5.8,-,N/A,,Clear,300,2011-11-16 01:55:00
8:15 PM,46.0,29.8,53,29.84,10.0,WNW,6.9,-,N/A,,Clear,300,2011-11-16 02:15:00
8:35 PM,44.6,29.1,55,29.85,10.0,WNW,5.8,-,N/A,,Clear,300,2011-11-16 02:35:00
8:55 PM,43.7,28.2,54,29.86,10.0,WNW,6.9,-,N/A,,Clear,300,2011-11-16 02:55:00
9:15 PM,43.3,27.5,54,29.87,10.0,WNW,6.9,-,N/A,,Clear,300,2011-11-16 03:15:00
9:35 PM,43.3,27.5,54,29.88,10.0,WNW,8.1,-,N/A,,Clear,300,2011-11-16 03:35:00
9:55 PM,43.2,27.3,54,29.89,10.0,WNW,8.1,-,N/A,,Clear,290,2011-11-16 03:55:00
10:15 PM,42.3,27.3,56,29.91,10.0,WNW,9.2,-,N/A,,Clear,300,2011-11-16 04:15:00
10:35 PM,42.3,27.1,55,29.92,10.0,WNW,10.4,-,N/A,,Clear,300,2011-11-16 04:35:00
10:55 PM,44.6,25.7,48,29.93,10.0,WNW,11.5,-,N/A,,Clear,300,2011-11-16 04:55:00
11:15 PM,44.1,24.6,46,29.94,10.0,NW,12.7,23.0,N/A,,Clear,310,2011-11-16 05:15:00
11:35 PM,43.2,23.7,46,29.95,10.0,NW,13.8,-,N/A,,Clear,310,2011-11-16 05:35:00
11:55 PM,42.8,22.8,45,29.96,10.0,NW,11.5,-,N/A,,Clear,320,2011-11-16 05:55:00